User: anonymous   Login
Location: Unspecified
(0.0000°N, 0.0000°E)
Time: 02:41:36
(UTC+00:00)
Language:

COSMOS 2501 (GLONASS) - Orbit

View from above orbital plane
View from above orbital plane
View from above satellite
View from above satellite

Ground track
Ground track

The orbit data is extracted from the following two-line orbital elements,

1 40315U 14075A   19293.22012872  .00000050  00000-0  00000+0 0  9992
2 40315  63.9904 275.2932 0017598 212.3535 210.0254  2.13098618 38033
Epoch (UTC): 20 October 2019 05:16:59
Eccentricity: 0.0017598
inclination: 63.9904°
perigee height: 19085 km
apogee height: 19175 km
right ascension of ascending node: 275.2932°
argument of perigee: 212.3535°
revolutions per day: 2.13098618
mean anomaly at epoch: 210.0254°
orbit number at epoch: 3803

The dashed part of the orbit path shows where the satellite is in the earth's shadow,  

DLR